CAPE
778 999 1287 1725 2102 1985 1794 1135 725 565 549 439 328 302 164 529 732 797 891 739 665 602 405 309 149 35 0 0 0 0 0 0
819 865 945 1295 1364 1508 1442 927 583 434 458 460 395 352 248 247 265 365 586 586 381 361 307 196 25 2 0 0 0 0 0 0
290 183 215 205 888 873 1047 778 496 386 506 422 204 41 37 62 153 320 405 328 258 376 215 46 0 0 0 0 0 0 0 0
81 44 39 36 413 520 487 670 509 361 307 114 1 0 1 44 196 357 413 290 281 285 168 3 0 0 0 0 0 0 0 0
34 65 38 37 146 53 219 40 2 1 0 0 0 0 0 45 44 130 167 121 127 135 8 0 0 0 0 0 0 0 0 0
0 51 33 15 0 1 46 103 0 1 1 0 0 1 16 93 91 21 41 68 74 29 0 0 0 0 0 0 0 0 0 0
0 0 5 2 1 0 0 47 5 1 1 0 0 0 40 100 100 77 96 14 10 0 0 0 0 0 0 0 0 0 0 0
0 0 0 1 0 0 0 0 1 1 2 1 0 1 22 47 26 62 38 1 0 0 0 0 0 0 0 0 0 0 0 0
0 0 0 0 1 0 1 0 0 1 1 4 3 3 1 19 13 1 0 0 0 0 0 0 0 0 0 0 0 0 0 0
0 0 0 0 1 1 1 1 0 0 17 4 14 5 1 0 2 0 0 0 0 0 0 0 0 0 0 0 0 0 0 0
0 0 0 0 0 0 0 0 11 20 12 2 11 7 0 1 1 0 0 0 0 0 0 0 0 0 0 0 0 0 0 0
0 0 0 0 0 0 1 2 5 4 12 7 15 17 0 1 0 0 0 0 0 0 0 0 0 0 0 0 0 0 0 0
0 0 1 0 0 0 1 0 0 0 17 12 5 23 0 0 0 0 0 0 0 0 0 0 0 0 0 0 0 0 0 0
0 0 0 0 0 0 0 0 0 0 1 1 15 30 0 0 0 0 0 0 0 0 0 0 0 0 0 0 0 0 0 0
0 0 0 0 0 0 1 0 0 0 0 0 1 40 2 0 0 0 0 0 0 0 0 0 0 0 0 0 0 0 0 0
0 0 0 0 0 0 0 0 0 0 0 0 0 0 1 1 0 0 0 0 0 0 0 1 0 0 0 0 0 0 7 0
0 0 0 0 0 0 0 0 0 0 0 1 1 0 2 1 0 0 0 0 0 0 0 1 0 0 0 0 7 3 0 0
0 0 0 0 0 0 0 0 0 0 1 1 1 1 0 1 1 0 4 20 0 0 0 0 0 1 0 6 15 19 3 19
0 0 0 0 0 0 0 0 0 0 0 1 2 2 1 0 2 5 12 0 5 2 1 0 0 3 0 5 3 19 14 17
0 0 0 1 0 0 0 0 0 0 0 0 1 3 3 1 0 0 0 0 0 5 5 10 1 6 1 0 0 1 8 11
CIN
-325 -249 -175 -80 -34 -23 -11 -66 -109 -103 -80 -109 -146 -147 -175 -49 -11 -9 -2 -6 -5 -13 -14 -13 -20 -119 -3 0 0 0 0 0
-308 -251 -210 -147 -120 -56 -29 -76 -108 -116 -75 -59 -72 -75 -86 -60 -30 -20 -3 -6 -26 -53 -9 -12 -101 -54 0 0 0 0 0 0
-424 -410 -364 -346 -180 -153 -64 -79 -99 -93 -51 -46 -84 -150 -191 -68 -8 -24 -30 -37 -9 -18 -11 -42 0 0 0 0 0 0 0 0
-504 -489 -483 -442 -260 -205 -164 -79 -66 -72 -82 -146 -56 0 -41 -60 -4 -13 -5 -1 -7 -15 -18 -21 -13 0 0 0 0 0 0 0
-574 -496 -474 -457 -343 -336 -221 -224 -38 -41 -6 0 0 0 -6 -49 -41 -12 -17 -20 -22 -31 -14 0 0 0 0 0 0 0 0 0
0 -544 -504 -466 0 0 -269 -182 0 0 0 0 0 0 -35 -4 -2 -2 -4 -7 -37 -45 0 0 0 0 0 0 0 0 0 0
0 0 -323 -58 -29 0 0 -205 -75 0 0 0 0 0 -8 0 -1 0 -1 -33 -86 0 0 0 0 0 0 0 0 0 0 0
0 0 0 0 0 0 0 0 -1 0 -1 -1 0 -27 -15 -3 -33 -6 -8 -97 0 0 0 0 0 0 0 0 0 0 0 0
0 0 0 0 0 0 0 0 0 0 0 -115 -80 -60 -51 -15 -27 0 0 0 0 0 0 0 0 0 0 0 0 0 0 0
0 0 0 0 0 0 0 0 0 0 -64 -95 -48 -30 0 0 -10 0 0 0 0 0 0 0 0 0 0 0 0 0 0 0
0 0 0 0 0 0 0 0 -56 -113 -38 -66 -25 -16 0 0 0 0 0 0 0 0 0 0 0 0 0 0 0 0 0 0
0 0 0 0 0 0 0 -25 -22 -24 -10 -26 -9 -6 0 0 0 0 0 0 0 0 0 0 0 0 0 0 0 0 0 0
0 0 0 0 0 0 0 -3 0 -10 -4 -3 -22 -7 0 0 0 0 0 0 0 0 0 0 0 0 0 0 0 0 0 0
0 0 0 0 0 0 0 0 0 0 -77 0 -8 -4 0 0 0 0 0 0 0 0 0 0 0 0 0 0 0 0 0 0
0 0 0 0 0 0 0 0 0 0 0 0 0 -2 0 -1 0 0 0 0 0 0 0 0 0 0 0 0 0 0 0 0
0 0 0 0 0 0 0 0 0 0 0 0 0 0 0 0 -1 0 0 0 0 0 0 -117 0 0 0 0 0 0 -156 0
0 0 0 0 0 0 0 0 0 0 0 0 0 0 0 0 0 0 0 0 0 0 0 -166 0 0 0 0 -185 -229 0 0
0 0 0 0 0 0 0 0 0 0 0 0 0 0 0 0 0 0 -6 -21 0 -17 0 -69 -60 -55 -65 -152 -146 -121 -47 -146
0 0 0 -1 0 0 0 0 0 0 0 0 0 0 0 0 0 0 -1 0 -60 -102 -121 0 -30 -119 0 -156 -164 -113 -178 -187
0 0 0 0 0 0 0 0 0 0 0 0 0 0 0 0 0 0 0 0 -10 -86 -79 -77 -102 -77 -104 0 -8 -165 -167 -144
Wind_Speed
5 6 9 10 9 12 13 19 20 18 17 15 14 13 11 10 12 14 16 16 20 19 18 16 16 18 18 16 16 16 10 7
7 6 6 6 6 8 9 20 19 18 17 15 12 11 12 10 11 14 19 16 21 18 17 17 16 19 18 16 15 13 8 7
6 7 6 6 5 5 9 20 19 19 15 12 8 4 6 11 13 19 21 26 19 18 18 17 16 18 18 17 13 5 6 6
9 7 7 7 5 6 5 9 9 9 7 7 4 5 5 11 14 20 26 26 26 24 18 16 13 9 9 14 5 7 5 6
9 8 7 8 6 5 3 4 4 4 7 7 5 4 4 3 6 9 9 17 10 15 13 6 10 9 8 6 7 7 4 4
8 8 7 7 5 5 7 6 5 5 6 8 5 4 4 3 5 8 7 7 10 9 5 9 9 8 8 9 8 7 4 3
10 7 7 7 7 5 7 8 6 7 7 7 6 6 4 5 4 6 7 7 9 9 7 8 8 8 9 10 8 7 6 4
10 8 7 7 7 7 7 7 7 7 7 8 8 6 6 4 4 7 9 9 7 10 8 8 7 8 7 8 8 6 6 5
14 11 8 8 7 6 6 6 7 6 8 9 10 8 6 7 7 6 9 9 10 9 8 6 5 7 9 7 7 6 6 4
13 10 10 7 6 5 4 6 7 7 6 6 10 8 8 4 10 10 6 8 8 9 10 7 6 8 7 6 6 7 6 6
15 11 10 8 6 5 5 5 4 6 6 6 9 10 10 7 6 8 9 8 8 9 9 9 8 8 8 6 6 6 6 7
14 11 10 8 6 5 3 3 3 3 6 8 10 9 12 8 7 8 9 8 7 8 11 5 9 9 9 7 4 4 5 5
15 14 13 10 8 8 6 5 2 3 4 8 12 9 13 12 8 9 8 10 12 10 10 12 4 8 9 5 4 3 2 4
15 14 16 13 9 7 3 3 2 2 2 4 9 11 15 13 12 11 12 9 10 13 12 5 4 9 8 5 3 2 1 3
17 17 16 13 8 6 4 4 3 2 2 2 3 12 13 14 14 12 14 11 9 12 12 11 10 2 11 6 4 3 3 3
15 17 15 13 11 8 12 6 3 2 2 2 2 4 12 16 16 15 15 8 12 11 9 7 12 10 2 3 5 5 5 2
16 16 14 12 11 8 7 7 5 4 3 4 4 3 5 14 16 15 15 10 10 12 9 7 8 6 6 3 3 2 4 3
16 16 13 11 11 8 9 10 8 7 5 4 4 3 3 8 13 16 14 9 11 9 8 8 6 5 3 4 4 4 3 3
16 15 15 13 13 10 9 10 11 11 9 5 6 4 4 6 13 13 13 12 12 10 10 6 6 6 5 5 3 4 3 3
19 16 15 14 15 11 10 10 7 8 9 6 5 5 6 8 8 12 14 13 13 9 6 5 5 4 7 5 4 4 3 3
Wind_Direction
157 167 172 173 183 173 169 157 157 157 161 166 172 169 170 169 170 162 159 163 150 153 155 150 133 133 130 124 120 118 116 117
163 179 178 163 172 187 169 163 164 164 170 180 186 185 186 200 187 181 166 152 155 147 160 145 129 136 131 127 121 109 109 119
169 177 177 167 159 172 174 171 170 173 179 185 188 189 196 203 196 194 168 167 163 150 161 136 133 142 137 130 114 110 125 120
179 179 179 167 159 156 160 165 180 185 174 156 153 159 180 192 191 184 184 170 152 150 154 126 127 143 144 127 123 128 128 134
188 182 179 168 163 150 153 139 146 145 148 162 155 164 187 164 190 194 180 163 152 150 143 123 137 145 144 128 136 130 144 129
184 183 174 174 154 159 168 162 159 165 171 163 156 173 180 170 175 168 183 153 153 136 141 130 131 135 140 127 139 142 141 111
188 165 177 169 166 159 173 186 175 174 172 174 164 169 176 171 168 172 157 153 156 137 151 128 130 140 142 137 138 147 121 134
177 175 181 161 176 166 174 176 186 174 182 183 174 168 178 175 158 168 163 157 157 145 148 136 134 136 139 140 144 124 111 123
180 174 177 172 173 164 162 163 169 181 183 168 178 170 166 186 167 153 150 149 151 143 135 120 120 142 140 136 130 122 121 130
170 170 177 174 170 163 158 167 170 179 171 171 175 167 158 152 183 165 125 147 152 147 145 138 141 137 138 139 137 139 133 139
168 169 177 173 170 166 165 158 167 175 175 172 186 168 157 153 137 140 144 158 154 152 147 150 144 142 141 135 140 146 153 154
161 166 171 168 166 159 147 154 178 170 184 184 187 174 161 149 136 143 158 150 164 160 150 141 148 149 140 127 119 139 155 162
162 162 176 169 173 170 178 175 153 183 192 184 187 176 169 160 149 147 158 182 172 158 146 143 127 141 119 86 57 78 140 168
162 169 179 177 179 177 149 133 127 119 172 196 189 188 173 169 164 166 176 174 172 165 159 135 116 162 146 121 124 46 316 238
168 174 177 176 167 129 107 90 85 123 180 200 216 185 168 173 172 175 178 174 175 174 164 164 156 138 160 129 140 174 120 190
164 173 175 174 159 164 167 173 144 128 138 138 184 226 186 177 177 183 175 173 166 177 170 168 157 159 106 77 79 140 161 182
163 169 172 164 158 173 161 146 142 134 127 146 160 185 195 183 173 175 172 168 179 161 165 145 161 144 156 153 115 203 83 111
167 170 169 165 170 175 164 154 148 147 153 157 153 135 173 169 176 167 168 158 171 158 135 138 134 131 126 151 164 155 154 144
173 170 170 173 175 170 166 160 161 160 163 164 152 143 144 167 162 166 159 161 162 163 128 127 155 142 175 183 183 137 134 136
175 174 168 175 176 173 171 164 167 161 172 168 168 159 142 129 143 158 154 145 135 118 124 154 141 182 185 175 188 170 156 137